Location: Wingville
(42.9917°N, 90.4915°W)
Time: 09:32:49
(UTC+00:00)

CUBESAT XI-V - Pass Details

Date: 02 July 2022
Orbit: 668 x 690 km, 98.1° (Epoch: 14 August)

Event Time Altitude Azimuth Distance (km) Brightness Sun altitude
Exits shadow 08:28:59 28° 230° (SW) 1,268 ? -16.2°
Maximum altitude 08:30:21 33° 263° (W) 1,126 ? -16.1°
Drops below altitude 10° 08:34:31 10° 328° (NNW) 2,108 ? -15.7°
Sets 08:36:57 0° 338° (NNW) 3,024 ? -15.4°
